owner,sensor,date,latitude,longitude,sea_water_turbidity,qcFlag 
SCCF RECON,ioos:station:SCCF:16:1,2008-07-01T00:00:00Z,26.4345,-81.9647,6.69,1111122 
SCCF RECON,ioos:station:SCCF:16:1,2008-07-01T01:00:00Z,26.4345,-81.9647,5.02,1111122 
SCCF RECON,ioos:station:SCCF:16:1,2008-07-01T02:00:00Z,26.4345,-81.9647,3.73,1111122 
SCCF RECON,ioos:station:SCCF:16:1,2008-07-01T03:00:00Z,26.4345,-81.9647,4.25,1111122 
SCCF RECON,ioos:station:SCCF:16:1,2008-07-01T04:00:00Z,26.4345,-81.9647,4.59,1111122 
SCCF RECON,ioos:station:SCCF:16:1,2008-07-01T05:00:00Z,26.4345,-81.9647,4.62,1111122 
SCCF RECON,ioos:station:SCCF:16:1,2008-07-01T06:00:00Z,26.4345,-81.9647,5.29,1111122 
SCCF RECON,ioos:station:SCCF:16:1,2008-07-01T07:00:00Z,26.4345,-81.9647,4.24,1111122 
SCCF RECON,ioos:station:SCCF:16:1,2008-07-01T08:00:00Z,26.4345,-81.9647,3.31,1111122 
SCCF RECON,ioos:station:SCCF:16:1,2008-07-01T09:00:00Z,26.4345,-81.9647,3.6,1111122 
SCCF RECON,ioos:station:SCCF:16:1,2008-07-01T10:00:00Z,26.4345,-81.9647,3.15,1111122 
SCCF RECON,ioos:station:SCCF:16:1,2008-07-01T11:00:00Z,26.4345,-81.9647,12.65,1111122 
SCCF RECON,ioos:station:SCCF:16:1,2008-07-01T12:00:00Z,26.4345,-81.9647,7.81,1111122 
SCCF RECON,ioos:station:SCCF:16:1,2008-07-01T13:00:00Z,26.4345,-81.9647,3.87,1111122 
SCCF RECON,ioos:station:SCCF:16:1,2008-07-01T14:00:00Z,26.4345,-81.9647,4.03,1111122 
SCCF RECON,ioos:station:SCCF:16:1,2008-07-01T15:00:00Z,26.4345,-81.9647,5.03,1111122 
SCCF RECON,ioos:station:SCCF:16:1,2008-07-01T16:00:00Z,26.4345,-81.9647,4.41,1111122 
SCCF RECON,ioos:station:SCCF:16:1,2008-07-01T17:00:00Z,26.4345,-81.9647,4.99,1111122 
SCCF RECON,ioos:station:SCCF:16:1,2008-07-01T18:00:00Z,26.4345,-81.9647,3.64,1111122 
SCCF RECON,ioos:station:SCCF:16:1,2008-07-01T19:00:00Z,26.4345,-81.9647,3.61,1111122 
SCCF RECON,ioos:station:SCCF:16:1,2008-07-01T20:00:00Z,26.4345,-81.9647,4.68,1111122 
SCCF RECON,ioos:station:SCCF:16:1,2008-07-01T21:00:00Z,26.4345,-81.9647,6.31,1111122 
SCCF RECON,ioos:station:SCCF:16:1,2008-07-01T22:00:00Z,26.4345,-81.9647,6.91,1111122 
SCCF RECON,ioos:station:SCCF:16:1,2008-07-01T23:00:00Z,26.4345,-81.9647,8.12,1111122 
SCCF RECON,ioos:station:SCCF:16:1,2008-07-02T00:00:00Z,26.4345,-81.9647,4.79,1111122 
SCCF RECON,ioos:station:SCCF:16:1,2008-07-02T01:00:00Z,26.4345,-81.9647,4.16,1111122 
SCCF RECON,ioos:station:SCCF:16:1,2008-07-02T02:00:00Z,26.4345,-81.9647,4.11,1111122 
SCCF RECON,ioos:station:SCCF:16:1,2008-07-02T03:00:00Z,26.4345,-81.9647,3.68,1111122 
SCCF RECON,ioos:station:SCCF:16:1,2008-07-02T04:00:00Z,26.4345,-81.9647,3.95,1111122 
SCCF RECON,ioos:station:SCCF:16:1,2008-07-02T05:00:00Z,26.4345,-81.9647,4.42,1111122 
SCCF RECON,ioos:station:SCCF:16:1,2008-07-02T06:00:00Z,26.4345,-81.9647,5.17,1111122 
SCCF RECON,ioos:station:SCCF:16:1,2008-07-02T07:00:00Z,26.4345,-81.9647,5.55,1111122 
SCCF RECON,ioos:station:SCCF:16:1,2008-07-02T08:00:00Z,26.4345,-81.9647,5.06,1111122 
SCCF RECON,ioos:station:SCCF:16:1,2008-07-02T09:00:00Z,26.4345,-81.9647,4.82,1111122 
SCCF RECON,ioos:station:SCCF:16:1,2008-07-02T10:00:00Z,26.4345,-81.9647,4.51,1111122 
SCCF RECON,ioos:station:SCCF:16:1,2008-07-02T11:00:00Z,26.4345,-81.9647,4.2,1111122 
SCCF RECON,ioos:station:SCCF:16:1,2008-07-02T12:00:00Z,26.4345,-81.9647,5.61,1111122 
SCCF RECON,ioos:station:SCCF:16:1,2008-07-02T13:00:00Z,26.4345,-81.9647,8.79,1111122 
SCCF RECON,ioos:station:SCCF:16:1,2008-07-02T14:00:00Z,26.4345,-81.9647,7.69,1111122 
SCCF RECON,ioos:station:SCCF:16:1,2008-07-02T16:00:00Z,26.4345,-81.9647,4.75,1111122 
SCCF RECON,ioos:station:SCCF:16:1,2008-07-02T17:00:00Z,26.4345,-81.9647,4.46,1111122 
SCCF RECON,ioos:station:SCCF:16:1,2008-07-02T18:00:00Z,26.4345,-81.9647,4.16,1111122 
SCCF RECON,ioos:station:SCCF:16:1,2008-07-02T19:00:00Z,26.4345,-81.9647,3.76,1111122 
SCCF RECON,ioos:station:SCCF:16:1,2008-07-02T20:00:00Z,26.4345,-81.9647,4.44,1111122 
SCCF RECON,ioos:station:SCCF:16:1,2008-07-02T21:00:00Z,26.4345,-81.9647,5.46,1111122 
SCCF RECON,ioos:station:SCCF:16:1,2008-07-02T22:00:00Z,26.4345,-81.9647,6.97,1111122 
SCCF RECON,ioos:station:SCCF:16:1,2008-07-02T23:00:00Z,26.4345,-81.9647,8.9,1111122 
SCCF RECON,ioos:station:SCCF:16:1,2008-07-03T00:00:00Z,26.4345,-81.9647,7.51,1111122 
SCCF RECON,ioos:station:SCCF:16:1,2008-07-03T01:00:00Z,26.4345,-81.9647,6.85,1111122 
SCCF RECON,ioos:station:SCCF:16:1,2008-07-03T02:00:00Z,26.4345,-81.9647,3.84,1111122 
SCCF RECON,ioos:station:SCCF:16:1,2008-07-03T03:00:00Z,26.4345,-81.9647,3.53,1111122 
SCCF RECON,ioos:station:SCCF:16:1,2008-07-03T04:00:00Z,26.4345,-81.9647,3.51,1111122 
SCCF RECON,ioos:station:SCCF:16:1,2008-07-03T05:00:00Z,26.4345,-81.9647,4.51,1111122 
SCCF RECON,ioos:station:SCCF:16:1,2008-07-03T06:00:00Z,26.4345,-81.9647,4.2,1111122 
SCCF RECON,ioos:station:SCCF:16:1,2008-07-03T07:00:00Z,26.4345,-81.9647,4.16,1111122 
SCCF RECON,ioos:station:SCCF:16:1,2008-07-03T08:00:00Z,26.4345,-81.9647,4.4,1111122 
SCCF RECON,ioos:station:SCCF:16:1,2008-07-03T09:00:00Z,26.4345,-81.9647,4.13,1111122 
SCCF RECON,ioos:station:SCCF:16:1,2008-07-03T10:00:00Z,26.4345,-81.9647,3.89,1111122 
SCCF RECON,ioos:station:SCCF:16:1,2008-07-03T11:00:00Z,26.4345,-81.9647,3.64,1111122 
SCCF RECON,ioos:station:SCCF:16:1,2008-07-03T12:00:00Z,26.4345,-81.9647,3.73,1111122 
SCCF RECON,ioos:station:SCCF:16:1,2008-07-03T13:00:00Z,26.4345,-81.9647,3.65,1111122 
SCCF RECON,ioos:station:SCCF:16:1,2008-07-03T14:00:00Z,26.4345,-81.9647,3.65,1111122 
SCCF RECON,ioos:station:SCCF:16:1,2008-07-03T15:00:00Z,26.4345,-81.9647,4.04,1111122 
SCCF RECON,ioos:station:SCCF:16:1,2008-07-03T16:00:00Z,26.4345,-81.9647,4.88,1111122 
SCCF RECON,ioos:station:SCCF:16:1,2008-07-03T17:00:00Z,26.4345,-81.9647,6.17,1111122 
SCCF RECON,ioos:station:SCCF:16:1,2008-07-03T18:00:00Z,26.4345,-81.9647,4.64,1111122 
SCCF RECON,ioos:station:SCCF:16:1,2008-07-03T19:00:00Z,26.4345,-81.9647,4.55,1111122 
SCCF RECON,ioos:station:SCCF:16:1,2008-07-03T20:00:00Z,26.4345,-81.9647,4.24,1111122 
SCCF RECON,ioos:station:SCCF:16:1,2008-07-03T21:00:00Z,26.4345,-81.9647,4.87,1111122 
SCCF RECON,ioos:station:SCCF:16:1,2008-07-03T22:00:00Z,26.4345,-81.9647,6.21,1111122 
SCCF RECON,ioos:station:SCCF:16:1,2008-07-03T23:00:00Z,26.4345,-81.9647,7.4,1111122 
SCCF RECON,ioos:station:SCCF:16:1,2008-07-04T00:00:00Z,26.4345,-81.9647,8.15,1111122 
SCCF RECON,ioos:station:SCCF:16:1,2008-07-04T01:00:00Z,26.4345,-81.9647,6.69,1111122 
SCCF RECON,ioos:station:SCCF:16:1,2008-07-04T02:00:00Z,26.4345,-81.9647,4.7,1111122 
SCCF RECON,ioos:station:SCCF:16:1,2008-07-04T03:00:00Z,26.4345,-81.9647,4.13,1111122 
SCCF RECON,ioos:station:SCCF:16:1,2008-07-04T04:00:00Z,26.4345,-81.9647,3.26,1111122 
SCCF RECON,ioos:station:SCCF:16:1,2008-07-04T05:00:00Z,26.4345,-81.9647,3.18,1111122 
SCCF RECON,ioos:station:SCCF:16:1,2008-07-04T06:00:00Z,26.4345,-81.9647,3.24,1111122 
SCCF RECON,ioos:station:SCCF:16:1,2008-07-04T07:00:00Z,26.4345,-81.9647,3.74,1111122 
SCCF RECON,ioos:station:SCCF:16:1,2008-07-04T08:00:00Z,26.4345,-81.9647,4.25,1111122 
SCCF RECON,ioos:station:SCCF:16:1,2008-07-04T09:00:00Z,26.4345,-81.9647,3.93,1111122 
SCCF RECON,ioos:station:SCCF:16:1,2008-07-04T10:00:00Z,26.4345,-81.9647,3.23,1111122 
SCCF RECON,ioos:station:SCCF:16:1,2008-07-04T11:00:00Z,26.4345,-81.9647,5.05,1111122 
SCCF RECON,ioos:station:SCCF:16:1,2008-07-04T12:00:00Z,26.4345,-81.9647,3.09,1111122 
SCCF RECON,ioos:station:SCCF:16:1,2008-07-04T13:00:00Z,26.4345,-81.9647,2.89,1111122 
SCCF RECON,ioos:station:SCCF:16:1,2008-07-04T14:00:00Z,26.4345,-81.9647,2.98,1111122 
SCCF RECON,ioos:station:SCCF:16:1,2008-07-04T15:00:00Z,26.4345,-81.9647,3.35,1111122 
SCCF RECON,ioos:station:SCCF:16:1,2008-07-04T16:00:00Z,26.4345,-81.9647,3.63,1111122 
SCCF RECON,ioos:station:SCCF:16:1,2008-07-04T17:00:00Z,26.4345,-81.9647,3.54,1111122 
SCCF RECON,ioos:station:SCCF:16:1,2008-07-04T18:00:00Z,26.4345,-81.9647,3.38,1111122 
SCCF RECON,ioos:station:SCCF:16:1,2008-07-04T19:00:00Z,26.4345,-81.9647,3.45,1111122 
SCCF RECON,ioos:station:SCCF:16:1,2008-07-04T20:00:00Z,26.4345,-81.9647,7.63,1111122 
SCCF RECON,ioos:station:SCCF:16:1,2008-07-04T21:00:00Z,26.4345,-81.9647,3.33,1111122 
SCCF RECON,ioos:station:SCCF:16:1,2008-07-04T22:00:00Z,26.4345,-81.9647,4.14,1111122 
SCCF RECON,ioos:station:SCCF:16:1,2008-07-04T23:00:00Z,26.4345,-81.9647,5.96,1111122 
SCCF RECON,ioos:station:SCCF:16:1,2008-07-05T00:00:00Z,26.4345,-81.9647,5.79,1111122 
SCCF RECON,ioos:station:SCCF:16:1,2008-07-05T01:00:00Z,26.4345,-81.9647,5.64,1111122 
SCCF RECON,ioos:station:SCCF:16:1,2008-07-05T02:00:00Z,26.4345,-81.9647,4.74,1111122 
SCCF RECON,ioos:station:SCCF:16:1,2008-07-05T03:00:00Z,26.4345,-81.9647,3.57,1111122 
SCCF RECON,ioos:station:SCCF:16:1,2008-07-05T04:00:00Z,26.4345,-81.9647,3.01,1111122 
SCCF RECON,ioos:station:SCCF:16:1,2008-07-05T05:00:00Z,26.4345,-81.9647,3.08,1111122 
SCCF RECON,ioos:station:SCCF:16:1,2008-07-05T06:00:00Z,26.4345,-81.9647,3.29,1111122 
SCCF RECON,ioos:station:SCCF:16:1,2008-07-05T07:00:00Z,26.4345,-81.9647,3.37,1111122 
SCCF RECON,ioos:station:SCCF:16:1,2008-07-05T08:00:00Z,26.4345,-81.9647,3.28,1111122 
SCCF RECON,ioos:station:SCCF:16:1,2008-07-05T09:00:00Z,26.4345,-81.9647,3.68,1111122 
SCCF RECON,ioos:station:SCCF:16:1,2008-07-05T10:00:00Z,26.4345,-81.9647,3.34,1111122 
SCCF RECON,ioos:station:SCCF:16:1,2008-07-05T11:00:00Z,26.4345,-81.9647,3.19,1111122 
SCCF RECON,ioos:station:SCCF:16:1,2008-07-05T12:00:00Z,26.4345,-81.9647,3.07,1111122 
SCCF RECON,ioos:station:SCCF:16:1,2008-07-05T13:00:00Z,26.4345,-81.9647,4.57,1111122 
SCCF RECON,ioos:station:SCCF:16:1,2008-07-05T14:00:00Z,26.4345,-81.9647,2.67,1111122 
SCCF RECON,ioos:station:SCCF:16:1,2008-07-05T15:00:00Z,26.4345,-81.9647,2.63,1111122 
SCCF RECON,ioos:station:SCCF:16:1,2008-07-05T16:00:00Z,26.4345,-81.9647,2.78,1111122 
SCCF RECON,ioos:station:SCCF:16:1,2008-07-05T17:00:00Z,26.4345,-81.9647,3.07,1111122 
SCCF RECON,ioos:station:SCCF:16:1,2008-07-05T18:00:00Z,26.4345,-81.9647,3.15,1111122 
SCCF RECON,ioos:station:SCCF:16:1,2008-07-05T19:00:00Z,26.4345,-81.9647,3.16,1111122 
SCCF RECON,ioos:station:SCCF:16:1,2008-07-05T20:00:00Z,26.4345,-81.9647,3.01,1111122 
SCCF RECON,ioos:station:SCCF:16:1,2008-07-05T21:00:00Z,26.4345,-81.9647,3.19,1111122 
SCCF RECON,ioos:station:SCCF:16:1,2008-07-05T22:00:00Z,26.4345,-81.9647,3.44,1111122 
SCCF RECON,ioos:station:SCCF:16:1,2008-07-05T23:00:00Z,26.4345,-81.9647,3.62,1111122 
SCCF RECON,ioos:station:SCCF:16:1,2008-07-06T00:00:00Z,26.4345,-81.9647,5.15,1111122 
SCCF RECON,ioos:station:SCCF:16:1,2008-07-06T01:00:00Z,26.4345,-81.9647,5.81,1111122 
SCCF RECON,ioos:station:SCCF:16:1,2008-07-06T02:00:00Z,26.4345,-81.9647,5.92,1111122 
SCCF RECON,ioos:station:SCCF:16:1,2008-07-06T03:00:00Z,26.4345,-81.9647,5.23,1111122 
SCCF RECON,ioos:station:SCCF:16:1,2008-07-06T04:00:00Z,26.4345,-81.9647,3.86,1111122 
SCCF RECON,ioos:station:SCCF:16:1,2008-07-06T05:00:00Z,26.4345,-81.9647,4.1,1111122 
SCCF RECON,ioos:station:SCCF:16:1,2008-07-06T06:00:00Z,26.4345,-81.9647,3.29,1111122 
SCCF RECON,ioos:station:SCCF:16:1,2008-07-06T07:00:00Z,26.4345,-81.9647,3.55,1111122 
SCCF RECON,ioos:station:SCCF:16:1,2008-07-06T08:00:00Z,26.4345,-81.9647,3.89,1111122 
SCCF RECON,ioos:station:SCCF:16:1,2008-07-06T09:00:00Z,26.4345,-81.9647,4.11,1111122 
SCCF RECON,ioos:station:SCCF:16:1,2008-07-06T10:00:00Z,26.4345,-81.9647,3.81,1111122 
SCCF RECON,ioos:station:SCCF:16:1,2008-07-06T11:00:00Z,26.4345,-81.9647,4.0,1111122 
SCCF RECON,ioos:station:SCCF:16:1,2008-07-06T12:00:00Z,26.4345,-81.9647,3.8,1111122 
SCCF RECON,ioos:station:SCCF:16:1,2008-07-06T13:00:00Z,26.4345,-81.9647,3.56,1111122 
SCCF RECON,ioos:station:SCCF:16:1,2008-07-06T14:00:00Z,26.4345,-81.9647,3.04,1111122 
SCCF RECON,ioos:station:SCCF:16:1,2008-07-06T15:00:00Z,26.4345,-81.9647,2.95,1111122 
SCCF RECON,ioos:station:SCCF:16:1,2008-07-06T16:00:00Z,26.4345,-81.9647,2.94,1111122 
SCCF RECON,ioos:station:SCCF:16:1,2008-07-06T17:00:00Z,26.4345,-81.9647,2.81,1111122 
SCCF RECON,ioos:station:SCCF:16:1,2008-07-06T18:00:00Z,26.4345,-81.9647,3.27,1111122 
SCCF RECON,ioos:station:SCCF:16:1,2008-07-06T19:00:00Z,26.4345,-81.9647,3.17,1111122 
SCCF RECON,ioos:station:SCCF:16:1,2008-07-06T20:00:00Z,26.4345,-81.9647,3.92,1111122 
SCCF RECON,ioos:station:SCCF:16:1,2008-07-06T21:00:00Z,26.4345,-81.9647,3.85,1111122 
SCCF RECON,ioos:station:SCCF:16:1,2008-07-06T22:00:00Z,26.4345,-81.9647,4.16,1111122 
SCCF RECON,ioos:station:SCCF:16:1,2008-07-06T23:00:00Z,26.4345,-81.9647,3.8,1111122 
SCCF RECON,ioos:station:SCCF:16:1,2008-07-07T00:00:00Z,26.4345,-81.9647,4.19,1111122 
SCCF RECON,ioos:station:SCCF:16:1,2008-07-07T01:00:00Z,26.4345,-81.9647,4.37,1111122 
SCCF RECON,ioos:station:SCCF:16:1,2008-07-07T02:00:00Z,26.4345,-81.9647,4.53,1111122 
SCCF RECON,ioos:station:SCCF:16:1,2008-07-07T03:00:00Z,26.4345,-81.9647,4.18,1111122 
SCCF RECON,ioos:station:SCCF:16:1,2008-07-07T04:00:00Z,26.4345,-81.9647,3.92,1111122 
SCCF RECON,ioos:station:SCCF:16:1,2008-07-07T05:00:00Z,26.4345,-81.9647,3.02,1111122 
SCCF RECON,ioos:station:SCCF:16:1,2008-07-07T06:00:00Z,26.4345,-81.9647,3.05,1111122 
SCCF RECON,ioos:station:SCCF:16:1,2008-07-07T07:00:00Z,26.4345,-81.9647,3.64,1111122 
SCCF RECON,ioos:station:SCCF:16:1,2008-07-07T08:00:00Z,26.4345,-81.9647,3.45,1111122 
SCCF RECON,ioos:station:SCCF:16:1,2008-07-07T09:00:00Z,26.4345,-81.9647,3.64,1111122 
SCCF RECON,ioos:station:SCCF:16:1,2008-07-07T10:00:00Z,26.4345,-81.9647,3.71,1111122 
SCCF RECON,ioos:station:SCCF:16:1,2008-07-07T11:00:00Z,26.4345,-81.9647,3.53,1111122 
SCCF RECON,ioos:station:SCCF:16:1,2008-07-07T12:00:00Z,26.4345,-81.9647,3.64,1111122 
SCCF RECON,ioos:station:SCCF:16:1,2008-07-07T13:00:00Z,26.4345,-81.9647,3.26,1111122 
SCCF RECON,ioos:station:SCCF:16:1,2008-07-07T14:00:00Z,26.4345,-81.9647,3.06,1111122 
SCCF RECON,ioos:station:SCCF:16:1,2008-07-07T15:00:00Z,26.4345,-81.9647,3.05,1111122 
SCCF RECON,ioos:station:SCCF:16:1,2008-07-07T16:00:00Z,26.4345,-81.9647,2.75,1111122 
SCCF RECON,ioos:station:SCCF:16:1,2008-07-07T17:00:00Z,26.4345,-81.9647,2.58,1111122 
SCCF RECON,ioos:station:SCCF:16:1,2008-07-07T18:00:00Z,26.4345,-81.9647,2.6,1111122 
SCCF RECON,ioos:station:SCCF:16:1,2008-07-07T19:00:00Z,26.4345,-81.9647,2.91,1111122 
SCCF RECON,ioos:station:SCCF:16:1,2008-07-07T20:00:00Z,26.4345,-81.9647,3.53,1111122 
SCCF RECON,ioos:station:SCCF:16:1,2008-07-07T21:00:00Z,26.4345,-81.9647,3.88,1111122 
SCCF RECON,ioos:station:SCCF:16:1,2008-07-07T22:00:00Z,26.4345,-81.9647,3.94,1111122 
SCCF RECON,ioos:station:SCCF:16:1,2008-07-07T23:00:00Z,26.4345,-81.9647,3.93,1111122 
SCCF RECON,ioos:station:SCCF:16:1,2008-07-08T00:00:00Z,26.4345,-81.9647,3.97,1111122 
SCCF RECON,ioos:station:SCCF:16:1,2008-07-08T01:00:00Z,26.4345,-81.9647,3.51,1111122 
SCCF RECON,ioos:station:SCCF:16:1,2008-07-08T02:00:00Z,26.4345,-81.9647,3.66,1111122 
SCCF RECON,ioos:station:SCCF:16:1,2008-07-08T03:00:00Z,26.4345,-81.9647,3.82,1111122 
SCCF RECON,ioos:station:SCCF:16:1,2008-07-08T04:00:00Z,26.4345,-81.9647,5.11,1111122 
SCCF RECON,ioos:station:SCCF:16:1,2008-07-08T05:00:00Z,26.4345,-81.9647,4.33,1111122 
SCCF RECON,ioos:station:SCCF:16:1,2008-07-08T06:00:00Z,26.4345,-81.9647,3.82,1111122 
SCCF RECON,ioos:station:SCCF:16:1,2008-07-08T07:00:00Z,26.4345,-81.9647,3.31,1111122 
SCCF RECON,ioos:station:SCCF:16:1,2008-07-08T08:00:00Z,26.4345,-81.9647,3.54,1111122 
SCCF RECON,ioos:station:SCCF:16:1,2008-07-08T09:00:00Z,26.4345,-81.9647,3.92,1111122 
SCCF RECON,ioos:station:SCCF:16:1,2008-07-08T10:00:00Z,26.4345,-81.9647,3.61,1111122 
SCCF RECON,ioos:station:SCCF:16:1,2008-07-08T11:00:00Z,26.4345,-81.9647,3.47,1111122 
SCCF RECON,ioos:station:SCCF:16:1,2008-07-08T12:00:00Z,26.4345,-81.9647,3.69,1111122 
SCCF RECON,ioos:station:SCCF:16:1,2008-07-08T13:00:00Z,26.4345,-81.9647,3.78,1111122 
SCCF RECON,ioos:station:SCCF:16:1,2008-07-08T14:00:00Z,26.4345,-81.9647,3.42,1111122 
SCCF RECON,ioos:station:SCCF:16:1,2008-07-08T15:00:00Z,26.4345,-81.9647,3.33,1111122 
SCCF RECON,ioos:station:SCCF:16:1,2008-07-08T16:00:00Z,26.4345,-81.9647,3.27,1111122 
SCCF RECON,ioos:station:SCCF:16:1,2008-07-08T17:00:00Z,26.4345,-81.9647,2.92,1111122 
SCCF RECON,ioos:station:SCCF:16:1,2008-07-08T18:00:00Z,26.4345,-81.9647,2.68,1111122 
SCCF RECON,ioos:station:SCCF:16:1,2008-07-08T19:00:00Z,26.4345,-81.9647,2.8,1111122 
SCCF RECON,ioos:station:SCCF:16:1,2008-07-08T20:00:00Z,26.4345,-81.9647,2.73,1111122 
SCCF RECON,ioos:station:SCCF:16:1,2008-07-08T21:00:00Z,26.4345,-81.9647,3.0,1111122 
SCCF RECON,ioos:station:SCCF:16:1,2008-07-08T22:00:00Z,26.4345,-81.9647,3.39,1111122 
SCCF RECON,ioos:station:SCCF:16:1,2008-07-08T23:00:00Z,26.4345,-81.9647,4.06,1111122 
SCCF RECON,ioos:station:SCCF:16:1,2008-07-09T00:00:00Z,26.4345,-81.9647,3.9,1111122 
SCCF RECON,ioos:station:SCCF:16:1,2008-07-09T01:00:00Z,26.4345,-81.9647,4.08,1111122 
SCCF RECON,ioos:station:SCCF:16:1,2008-07-09T02:00:00Z,26.4345,-81.9647,3.85,1111122 
SCCF RECON,ioos:station:SCCF:16:1,2008-07-09T03:00:00Z,26.4345,-81.9647,3.47,1111122 
SCCF RECON,ioos:station:SCCF:16:1,2008-07-09T04:00:00Z,26.4345,-81.9647,3.24,1111122 
SCCF RECON,ioos:station:SCCF:16:1,2008-07-09T05:00:00Z,26.4345,-81.9647,3.01,1111122 
SCCF RECON,ioos:station:SCCF:16:1,2008-07-09T06:00:00Z,26.4345,-81.9647,2.84,1111122 
SCCF RECON,ioos:station:SCCF:16:1,2008-07-09T07:00:00Z,26.4345,-81.9647,2.63,1111122 
SCCF RECON,ioos:station:SCCF:16:1,2008-07-09T08:00:00Z,26.4345,-81.9647,2.69,1111122 
SCCF RECON,ioos:station:SCCF:16:1,2008-07-09T09:00:00Z,26.4345,-81.9647,3.35,1111122 
SCCF RECON,ioos:station:SCCF:16:1,2008-07-09T10:00:00Z,26.4345,-81.9647,3.28,1111122 
SCCF RECON,ioos:station:SCCF:16:1,2008-07-09T11:00:00Z,26.4345,-81.9647,3.32,1111122 
SCCF RECON,ioos:station:SCCF:16:1,2008-07-09T12:00:00Z,26.4345,-81.9647,3.13,1111122 
SCCF RECON,ioos:station:SCCF:16:1,2008-07-09T13:00:00Z,26.4345,-81.9647,3.35,1111122 
SCCF RECON,ioos:station:SCCF:16:1,2008-07-09T14:00:00Z,26.4345,-81.9647,3.38,1111122 
SCCF RECON,ioos:station:SCCF:16:1,2008-07-09T15:00:00Z,26.4345,-81.9647,3.15,1111122 
SCCF RECON,ioos:station:SCCF:16:1,2008-07-09T16:00:00Z,26.4345,-81.9647,3.11,1111122 
SCCF RECON,ioos:station:SCCF:16:1,2008-07-09T17:00:00Z,26.4345,-81.9647,2.99,1111122 
SCCF RECON,ioos:station:SCCF:16:1,2008-07-09T18:00:00Z,26.4345,-81.9647,2.78,1111122 
SCCF RECON,ioos:station:SCCF:16:1,2008-07-09T19:00:00Z,26.4345,-81.9647,4.81,1111122 
SCCF RECON,ioos:station:SCCF:16:1,2008-07-09T20:00:00Z,26.4345,-81.9647,3.62,1111122 
SCCF RECON,ioos:station:SCCF:16:1,2008-07-09T21:00:00Z,26.4345,-81.9647,2.53,1111122 
SCCF RECON,ioos:station:SCCF:16:1,2008-07-09T22:00:00Z,26.4345,-81.9647,2.46,1111122 
SCCF RECON,ioos:station:SCCF:16:1,2008-07-09T23:00:00Z,26.4345,-81.9647,2.73,1111122 
SCCF RECON,ioos:station:SCCF:16:1,2008-07-10T00:00:00Z,26.4345,-81.9647,2.96,1111122 
SCCF RECON,ioos:station:SCCF:16:1,2008-07-10T01:00:00Z,26.4345,-81.9647,2.94,1111122 
SCCF RECON,ioos:station:SCCF:16:1,2008-07-10T02:00:00Z,26.4345,-81.9647,3.55,1111122 
SCCF RECON,ioos:station:SCCF:16:1,2008-07-10T03:00:00Z,26.4345,-81.9647,2.92,1111122 
SCCF RECON,ioos:station:SCCF:16:1,2008-07-10T04:00:00Z,26.4345,-81.9647,2.38,1111122 
SCCF RECON,ioos:station:SCCF:16:1,2008-07-10T05:00:00Z,26.4345,-81.9647,2.36,1111122 
SCCF RECON,ioos:station:SCCF:16:1,2008-07-10T06:00:00Z,26.4345,-81.9647,2.27,1111122 
SCCF RECON,ioos:station:SCCF:16:1,2008-07-10T07:00:00Z,26.4345,-81.9647,2.29,1111122 
SCCF RECON,ioos:station:SCCF:16:1,2008-07-10T08:00:00Z,26.4345,-81.9647,2.19,1111122 
SCCF RECON,ioos:station:SCCF:16:1,2008-07-10T09:00:00Z,26.4345,-81.9647,2.32,1111122 
SCCF RECON,ioos:station:SCCF:16:1,2008-07-10T10:00:00Z,26.4345,-81.9647,2.31,1111122 
SCCF RECON,ioos:station:SCCF:16:1,2008-07-10T11:00:00Z,26.4345,-81.9647,2.47,1111122 
SCCF RECON,ioos:station:SCCF:16:1,2008-07-10T12:00:00Z,26.4345,-81.9647,2.64,1111122 
SCCF RECON,ioos:station:SCCF:16:1,2008-07-10T13:00:00Z,26.4345,-81.9647,2.7,1111122 
SCCF RECON,ioos:station:SCCF:16:1,2008-07-10T14:00:00Z,26.4345,-81.9647,2.72,1111122 
SCCF RECON,ioos:station:SCCF:16:1,2008-07-10T15:00:00Z,26.4345,-81.9647,2.75,1111122 
SCCF RECON,ioos:station:SCCF:16:1,2008-07-10T16:00:00Z,26.4345,-81.9647,3.18,1111122 
SCCF RECON,ioos:station:SCCF:16:1,2008-07-10T17:00:00Z,26.4345,-81.9647,3.06,1111122 
SCCF RECON,ioos:station:SCCF:16:1,2008-07-10T18:00:00Z,26.4345,-81.9647,2.89,1111122 
SCCF RECON,ioos:station:SCCF:16:1,2008-07-10T19:00:00Z,26.4345,-81.9647,2.74,1111122 
SCCF RECON,ioos:station:SCCF:16:1,2008-07-10T20:00:00Z,26.4345,-81.9647,2.96,1111122 
SCCF RECON,ioos:station:SCCF:16:1,2008-07-10T21:00:00Z,26.4345,-81.9647,2.24,1111122 
SCCF RECON,ioos:station:SCCF:16:1,2008-07-10T22:00:00Z,26.4345,-81.9647,2.26,1111122 
SCCF RECON,ioos:station:SCCF:16:1,2008-07-10T23:00:00Z,26.4345,-81.9647,2.3,1111122 
SCCF RECON,ioos:station:SCCF:16:1,2008-07-11T00:00:00Z,26.4345,-81.9647,3.06,1111122 
SCCF RECON,ioos:station:SCCF:16:1,2008-07-11T01:00:00Z,26.4345,-81.9647,3.07,1111122 
SCCF RECON,ioos:station:SCCF:16:1,2008-07-11T02:00:00Z,26.4345,-81.9647,3.37,1111122 
SCCF RECON,ioos:station:SCCF:16:1,2008-07-11T03:00:00Z,26.4345,-81.9647,3.06,1111122 
SCCF RECON,ioos:station:SCCF:16:1,2008-07-11T04:00:00Z,26.4345,-81.9647,3.29,1111122 
SCCF RECON,ioos:station:SCCF:16:1,2008-07-11T05:00:00Z,26.4345,-81.9647,3.41,1111122 
SCCF RECON,ioos:station:SCCF:16:1,2008-07-11T06:00:00Z,26.4345,-81.9647,2.79,1111122 
SCCF RECON,ioos:station:SCCF:16:1,2008-07-11T07:00:00Z,26.4345,-81.9647,2.69,1111122 
SCCF RECON,ioos:station:SCCF:16:1,2008-07-11T08:00:00Z,26.4345,-81.9647,2.82,1111122 
SCCF RECON,ioos:station:SCCF:16:1,2008-07-11T09:00:00Z,26.4345,-81.9647,2.31,1111122 
SCCF RECON,ioos:station:SCCF:16:1,2008-07-11T10:00:00Z,26.4345,-81.9647,2.28,1111122 
SCCF RECON,ioos:station:SCCF:16:1,2008-07-11T11:00:00Z,26.4345,-81.9647,4.03,1111122 
SCCF RECON,ioos:station:SCCF:16:1,2008-07-11T12:00:00Z,26.4345,-81.9647,2.49,1111122 
SCCF RECON,ioos:station:SCCF:16:1,2008-07-11T13:00:00Z,26.4345,-81.9647,2.36,1111122 
SCCF RECON,ioos:station:SCCF:16:1,2008-07-11T14:00:00Z,26.4345,-81.9647,2.16,1111122 
SCCF RECON,ioos:station:SCCF:16:1,2008-07-11T15:00:00Z,26.4345,-81.9647,2.27,1111122 
SCCF RECON,ioos:station:SCCF:16:1,2008-07-11T16:00:00Z,26.4345,-81.9647,2.47,1111122 
SCCF RECON,ioos:station:SCCF:16:1,2008-07-11T17:00:00Z,26.4345,-81.9647,2.58,1111122 
SCCF RECON,ioos:station:SCCF:16:1,2008-07-11T18:00:00Z,26.4345,-81.9647,2.68,1111122 
SCCF RECON,ioos:station:SCCF:16:1,2008-07-11T19:00:00Z,26.4345,-81.9647,2.89,1111122 
SCCF RECON,ioos:station:SCCF:16:1,2008-07-11T20:00:00Z,26.4345,-81.9647,2.61,1111122 
SCCF RECON,ioos:station:SCCF:16:1,2008-07-11T21:00:00Z,26.4345,-81.9647,3.98,1111122 
SCCF RECON,ioos:station:SCCF:16:1,2008-07-11T22:00:00Z,26.4345,-81.9647,2.42,1111122 
SCCF RECON,ioos:station:SCCF:16:1,2008-07-11T23:00:00Z,26.4345,-81.9647,2.37,1111122 
SCCF RECON,ioos:station:SCCF:16:1,2008-07-12T00:00:00Z,26.4345,-81.9647,1.9,1111122 
SCCF RECON,ioos:station:SCCF:16:1,2008-07-12T01:00:00Z,26.4345,-81.9647,2.44,1111122 
SCCF RECON,ioos:station:SCCF:16:1,2008-07-12T02:00:00Z,26.4345,-81.9647,2.12,1111122 
SCCF RECON,ioos:station:SCCF:16:1,2008-07-12T03:00:00Z,26.4345,-81.9647,2.35,1111122 
SCCF RECON,ioos:station:SCCF:16:1,2008-07-12T04:00:00Z,26.4345,-81.9647,3.24,1111122 
SCCF RECON,ioos:station:SCCF:16:1,2008-07-12T05:00:00Z,26.4345,-81.9647,2.22,1111122 
SCCF RECON,ioos:station:SCCF:16:1,2008-07-12T06:00:00Z,26.4345,-81.9647,2.35,1111122 
SCCF RECON,ioos:station:SCCF:16:1,2008-07-12T07:00:00Z,26.4345,-81.9647,2.98,1111122 
SCCF RECON,ioos:station:SCCF:16:1,2008-07-12T08:00:00Z,26.4345,-81.9647,2.75,1111122 
SCCF RECON,ioos:station:SCCF:16:1,2008-07-12T09:00:00Z,26.4345,-81.9647,2.16,1111122 
SCCF RECON,ioos:station:SCCF:16:1,2008-07-12T10:00:00Z,26.4345,-81.9647,8.73,1111122 
SCCF RECON,ioos:station:SCCF:16:1,2008-07-12T11:00:00Z,26.4345,-81.9647,2.03,1111122 
SCCF RECON,ioos:station:SCCF:16:1,2008-07-12T12:00:00Z,26.4345,-81.9647,1.93,1111122 
SCCF RECON,ioos:station:SCCF:16:1,2008-07-12T13:00:00Z,26.4345,-81.9647,2.0,1111122 
SCCF RECON,ioos:station:SCCF:16:1,2008-07-12T14:00:00Z,26.4345,-81.9647,1.95,1111122 